sat.trackr.live / text

‹ back to catalog

STARLINK-5846

NORAD 56492 · 2023-064AW

PAYLOAD ACTIVE UNKNOWN

§ Identity

Operator
Country
US
Launch date
2023-05-10
Launch site
AFWTR
Launch vehicle
Mass (kg)
RCS (m²)

Purposes: comms

External: N2YO · Heavens-Above · Gunter

§ Orbital elements

Epoch: 2026-05-24T15:58:48.398016Z

Period
96.11 min
Inclination
69.9987°
Eccentricity
0.0002518
Mean motion
14.98321994 rev/d
Perigee alt
570.3 km
Apogee alt
573.8 km
Semi-major
6,950.2 km
B*
5.8678e-5
RAAN
272.8624°
Arg perigee
272.9895°
Mean anomaly
87.0976°
Rev number
16,761

§ Raw data

STARLINK-58461 56492U 23064AW  26144.66583794  .00000607  00000+0  58678-4 0  99962 56492  69.9987 272.8624 0002518 272.9895  87.0976 14.98321994167613

JSON: /api/v1/satellites/56492 · /tle

For live sub-satellite position, see the globe view (requires WebGL).

§ Visibility from observer

Set your observer location to see the next 7 days of passes ≥ 10°. The values pass through the URL so the page stays shareable.

No JS? Fill the form by hand. The geolocation button needs JavaScript.